Regional Weather Roundup
Issued by NWS Upton, NY

Current Version | Previous Version | Text Only | Print | Product List | Glossary On
Versions: 1 2 3 4 5 6 7 8 9 10 11 12 13 14 15 16 17 18 19 20 21 22 23 24 25 26 27 28 29 30 31 32 33 34 35 36 37 38 39 40 41 42 43 44 45
000 ASUS41 KOKX 252005 RWROKX REGIONAL WEATHER ROUNDUP NATIONAL WEATHER SERVICE NEW YORK NY 300 PM EST THU DEC 25 2014 NOTE: "FAIR" INDICATES FEW OR NO CLOUDS BELOW 12,000 FEET WITH NO SIGNIFICANT WEATHER AND/OR OBSTRUCTIONS TO VISIBILITY. NYZ071-072-176-178-NJZ106-104-252100- NEW YORK CITY METRO AREA CITY SKY/WX TMP DP RH WIND PRES REMARKS CENTRAL PARK CLOUDY 51 27 39 W14G28 29.89R LAGUARDIA APRT PTSUNNY 51 28 41 W23G31 29.86R KENNEDY INTL PTSUNNY 52 27 38 W16G30 29.88R NEWARK/LIBERTY PTSUNNY 51 28 41 W24G39 29.88R BRNX BOT. GARD N/A N/A N/A N/A NW6 29.89R TETERBORO CLOUDY 51 31 46 W18G26 29.86R $$ NYZ177-179-078>081-252100- LONG ISLAND NEW YORK CITY SKY/WX TMP DP RH WIND PRES REMARKS FARMINGDALE MOSUNNY 51 27 39 NW17G32 29.84R ISLIP PTSUNNY 52 29 41 W22G29 29.82R SHIRLEY MOSUNNY 51 29 42 W21G28 29.83R WESTHAMPTON MOSUNNY 53 29 39 W22G36 29.81R MONTAUK POINT N/A 52 35 52 W15G26 29.78R $$ NYZ052-065-067-252100- HUDSON VALLEY CITY SKY/WX TMP DP RH WIND PRES REMARKS WHITE PLAINS PTSUNNY 49 26 41 W17G31 29.83R NEWBURGH PTSUNNY 48 32 53 NW16G25 29.84R MONTGOMERY CLOUDY 49 28 44 W13G24 29.83R POUGHKEEPSIE PTSUNNY 50 29 44 W17G26 29.83R ALBANY CLOUDY 48 30 49 W21G31 29.77R $$ NJZ001-105-106-008-010-013-015-019>022-104-252100- NEW JERSEY CITY SKY/WX TMP DP RH WIND PRES REMARKS NEWARK/LIBERTY PTSUNNY 51 28 41 W24G39 29.88R TETERBORO CLOUDY 51 31 46 W18G26 29.86R CALDWELL CLOUDY 50 26 39 W17G30 29.88R MORRISTOWN PTSUNNY 54 32 43 NW20G32 29.89R SOMERVILLE CLOUDY 50 28 42 NW12G30 29.89R SUSSEX CLOUDY 48 28 46 VRB7G22 29.87R ANDOVER NOT AVBL TRENTON CLOUDY 51 29 42 NW14G26 29.92R MILLVILLE PTSUNNY 51 31 46 NW20G28 29.95R ATLANTIC CITY CLOUDY 51 31 46 NW18G28 29.93R WRIGHTSTOWN CLOUDY 50 31 47 NW16G30 29.90R TOMS RIVER CLOUDY 52 30 43 NW16G29 29.91R BELMAR CLOUDY 52 30 43 W20G30 29.90R $$ PAZ047>061-062-071-252100- EASTERN PENNSYLVANIA CITY SKY/WX TMP DP RH WIND PRES REMARKS PHILADELPHIA PTSUNNY 52 29 41 NW20 29.96R ALLENTOWN CLOUDY 49 28 44 W18G26 29.91R SCRANTON CLOUDY 46 31 55 W15G21 29.89R $$ CTZ002-004>006-009-010-012-RIZ004-006-007-MAZ004-011-015-252100- SOUTHERN NEW ENGLAND IN CT CITY SKY/WX TMP DP RH WIND PRES REMARKS BRADLEY INTL PTSUNNY 51 28 41 W13G24 29.76R HARTFORD CLOUDY 51 29 42 W9G23 29.78R DANBURY CLOUDY 48 26 42 W13G23 29.82R WTRBRY/OXFORD MOSUNNY 46 28 49 NW13G23 29.80R BRIDGEPORT CLOUDY 51 29 42 W21G35 29.81R MERIDEN CLOUDY 51 27 39 W9G26 29.79R NEW HAVEN PTSUNNY 53 30 41 NW15G28 29.80R CHESTER MOCLDY 50 28 43 NW15G28 29.77R GROTON PTSUNNY 52 31 44 NW17G29 29.75R WILLIMANTIC CLOUDY 51 29 42 NW9 29.75R IN RI CITY SKY/WX TMP DP RH WIND PRES REMARKS PROVIDENCE PTSUNNY 50 35 56 W15G24 29.72R BLOCK ISLAND SUNNY 50 37 62 W15G23 29.74R WESTERLY MOSUNNY 52 30 43 W13G32 29.74R IN MA CITY SKY/WX TMP DP RH WIND PRES REMARKS BOSTON PTSUNNY 50 32 50 W18G29 29.68R WORCESTER CLOUDY 45 28 51 W28G35 29.69R WESTFIELD CLOUDY 50 27 40 W10G21 29.76R PROVINCETOWN MOSUNNY 52 36 54 W14G31 29.67R NANTUCKET SUNNY 50 41 71 W21G29 29.70R $$ ANZ330-335-338-340-345-350-353-355-252100- COASTAL MARINE OBSERVATIONS STATION/POSITION TIME SKY/WX TEMP WIND PRES VSBY WAVE AIR SEA DIR/SP/G HT/PER (UTC) (F) (DEG/KT/KT) (MB) (MI) (FT/S) NY HARB ENTRANCE 2000 49 46 280/ 21/ 27 1011.8 5/ 8 4S FIRE IS 2000 47 N/A 6/ 8 20S FIRE ISLAND 1900 49 49 1009.6 7/ 8 23SW MTP 2000 N/A 8/ 9 HUDSON CANYON 2000 52 55 290/ 23/ 29 1010.9 10/ 7 EXECUTION ROCKS 2000 50 42 290/ 19/ 27 N/A WESTERN LI SOUND 2000 50 290/ 19/ 29 N/A 2/ 4 CENTRAL LI SOUND 1900 49 44 280/ 17/ 23 N/A 4/ 5 EASTERN LI SOUND NOT AVBL ROBBINS REEF 2000 51 1010.5 $$ >>>>>>>>>>>>>>>>>>>>>>>>>>>> KEY <<<<<<<<<<<<<<<<<<<<<<<<<<< > < > SKY/WX - SKY CONDITION/PRESENT WEATHER < > TMP - TEMPERATURE IN FAHRENHEIT < > DP - DEWPOINT IN FAHRENHEIT < > RH - RELATIVE HUMIDITY IN PERCENT < > WIND - DIRECTION AND SPEED IN MPH < > PRES - MEAN SEA LEVEL PRESSURE IN INCHES OF HG < > WCI - WIND CHILL INDEX < > VSB - VISIBILITY IN MILES < > HX - HEAT INDEX < > TC - TEMPERATURE IN CELSIUS < > VRB - VARIABLE WIND DIRECTION < > < >>>>>>>>>>>>>>>>>>>>>>>>>>>> KEY <<<<<<<<<<<<<<<<<<<<<<<<<<<

USA.gov is the U.S. government's official web portal to all federal, state and local government web resources and services.